Location: Molino di Ancona
(43.6167°N, 13.3667°E)
Time: 04:39:05
(UTC+00:00)

Cosmos 1733 Rocket - Pass Details

Date: 15 December 2019
Orbit: 604 x 627 km, 82.5° (Epoch: 27 January)

Event Time Altitude Azimuth Distance (km) Brightness Sun altitude
Rises 04:08:00 0° 167° (SSE) 2,844 6.7 -25.2°
Reaches altitude 10° 04:10:18 10° 160° (SSE) 1,946 5.9 -24.8°
Maximum altitude 04:14:17 38° 92° (E) 929 4.4 -24.1°
Drops below altitude 10° 04:18:19 10° 24° (NNE) 1,966 5.8 -23.4°
Sets 04:20:38 0° 17° (NNE) 2,877 6.6 -23.0°
